M-CUBED & EXP-1 PRIME

Last updated on Sun Jun 30 2024 00:02:58 GMT+0000 (Coordinated Universal Time)

1 37855U 11061F 24181.48899497 .06822559 53618-5 12523-2 0 9991 2 37855 101.6695 18.4821 0019276 270.1807 89.7262 16.31679092695033

Satellite not in orbit